TIME,DELAY(SENSOR),PRES,OXYGEN,RAWTEMP,T(OPTODE),TCPHASE,FLUOR,BETA(BETA700),BETA(BETA412),BETA(BETA440),CDOM,C(CSC),ED(ED411.90),ED(ED443.80),ED(ED489.40),ED(ED554.70),LU(LU412.20),LU(LU443.80),LU(LU489.40),LU(LU555.00),COMP,TILTX,TILTY,CHECK
1344551176,5805,870.7199707031250000,163.9120025634765600,443.1088867187500000,9.6508979797363280,39.9447898864746100,50,109,103,85,73,15613,2147445632,2147792027,2147579145,2147822409,2147310281,2147459794,2147753590,2148270610,919,6,14,10727
1344554772,5804,7.4000000953674320,194.5881042480468800,503.5433959960937500,7.7691712379455570,38.8656082153320300,51,109,103,82,75,15615,2147439332,2147796955,2147581997,2147832493,2147305545,2147455296,2147762148,2148277211,2868,6,14,46927
1344558372,5803,8.1000003814697270,201.5391998291015600,513.6649169921875000,7.4517431259155270,38.6106300354003900,52,105,104,84,75,15602,2147436032,2147795593,2147585453,2147831844,2147310784,2147451446,2147760256,2148278921,1563,6,14,11147
1344561972,5804,970.0000000000000000,203.8863067626953000,514.0289916992188000,7.4403119087219240,38.4742088317871100,52,107,101,82,75,15602,2147436946,2147799990,2147583451,2147832694,2147305618,2147449490,2147760128,2148281846,129,6,14,43580
1344565572,5805,9.1999998092651370,203.9860992431640600,515.8723754882812000,7.3824172019958500,38.5009498596191400,51,106,101,82,77,15605,2147436982,2147797860,2147586148,2147831469,2147305453,2147450285,2147762048,2148280649,3022,6,14,13779
1344569172,5804,996.0000000000000000,203.7872009277343800,516.0725708007812000,7.3761291503906250,38.5169296264648440,52,105,101,83,75,15598,2147436388,2147796214,2147583433,2147833517,2147304905,2147449078,2147762450,2148280941,3083,6,14,30532
1344572772,5804,9.6000003814697270,205.6443023681640600,518.1743774414062000,7.3100881576538090,38.4418296813964840,51,103,101,82,75,15599,2147434770,2147797522,2147582738,2147831378,2147304429,2147452708,2147761901,2148277120,3109,6,14,58795
1344576372,5805,10.5000000000000000,206.6148986816406200,518.4000854492188000,7.3029928207397460,38.3878707885742200,51,103,102,82,77,15592,2147436370,2147797485,2147585362,2147833536,2147307245,2147451629,2147764068,2148278628,88,6,14,22064
1344579972,5805,10.1000003814697270,206.0950012207031200,518.3120117187500000,7.3057618141174320,38.4175796508789060,51,105,103,83,76,15595,2147440932,2147797257,2147585554,2147830354,2147306340,2147448045,2147765696,2148280429,481,6,14,2525
1344583572,5803,1050.0000000000000000,205.9140930175781200,517.6751098632812000,7.3257789611816410,38.4168090820312500,51,107,101,81,75,15595,2147432795,2147797659,2147583725,2147832173,2147303744,2147452169,2147762486,2148280978,229,6,14,52626
1344587172,5804,10.1999998092651370,205.3206939697265600,518.3781738281250000,7.3036808967590330,38.4652595520019500,51,105,101,82,76,15590,2147432237,2147797659,2147584822,2147834185,2147303360,2147447506,2147765248,2148277696,3540,6,14,5159
1344590772,5803,10.5000000000000000,208.0930938720703000,520.4113159179688000,7.2397680282592770,38.3360595703125000,52,104,101,81,75,15589,2147431488,2147798180,2147585856,2147833554,2147305508,2147446610,2147763574,2148277074,3035,6,14,55765
1344594372,5804,10.3999996185302730,209.0780944824218800,520.8483886718750000,7.2260189056396480,38.2851295471191400,51,106,101,82,75,15590,2147431131,2147795291,2147585874,2147832237,2147308562,2147444845,2147762834,2148278272,3491,6,14,1314
1344597972,5804,10.3000001907348630,208.7313995361328000,520.7564697265625000,7.2289118766784670,38.3038482666015600,51,104,102,82,75,15588,2147433499,2147795556,2147584073,2147834532,2147308178,2147447414,2147764178,2148280612,3390,6,14,18386
1344601572,5802,10.8000001907348630,208.1427001953125000,520.5718994140625000,7.2347159385681150,38.3353691101074200,50,164,102,82,75,15588,2147429961,2147796608,2147583323,2147831771,2147308406,2147446976,2147767936,2148276754,3459,6,14,4254
1344605172,5802,1000.0000000000000000,209.2602996826172000,522.2053833007812000,7.1833381652832030,38.2989311218261700,51,104,101,82,74,15589,2147432420,2147795830,2147584512,2147830582,2147307931,2147445988,2147765540,2148278162,3551,6,14,30440
1344608772,5804,1037.0000000000000000,209.5511932373047000,521.4846801757812000,7.2060089111328125,38.2691001892089840,51,105,101,82,75,15588,2147434724,2147798902,2147586834,2147832996,2147301577,2147449627,2147764114,2148279369,607,6,14,3624
1344612372,5805,11.1999998092651370,209.0467987060547000,520.7664184570312000,7.2286000251770020,38.2860603332519500,51,103,101,81,77,15589,2147433353,2147801298,2147584557,2147830902,2147304969,2147448932,2147763904,2148278098,482,6,14,793
1344615972,5801,10.3000001907348630,208.9877014160156200,520.7764282226562000,7.2282857894897460,38.2892189025878900,51,104,101,81,76,15587,2147435273,2147800219,2147585709,2147834157,2147304320,2147446198,2147767588,2148276699,480,6,14,24556
1344619572,5803,11.8000001907348630,208.9160003662109400,520.5980224609375000,7.2338938713073730,38.2905387878418000,51,103,102,82,75,15576,2147431433,2147798400,2147581796,2147832109,2147305526,2147449307,2147765257,2148277732,572,6,14,23836
1344623172,5804,1094.0000000000000000,209.7360992431640600,521.4409179687500000,7.2073879241943360,38.2572593688964840,51,106,101,82,76,15582,2147431104,2147800173,2147583734,2147834112,2147304539,2147449472,2147767899,2148279680,672,6,14,10564
1344626772,5804,10.3000001907348630,209.6266021728515600,521.1417846679688000,7.2167949676513670,38.2581291198730500,51,104,102,82,76,15579,2147429897,2147798253,2147583222,2147832082,2147303552,2147449810,2147763328,2148277467,675,6,14,44618
1344630372,5806,1037.0000000000000000,209.5933990478515600,522.4102172851562000,7.1768970489501950,38.2831306457519500,51,105,102,82,78,15582,2147436745,2147795364,2147582052,2147830948,2147304996,2147448539,2147760082,2148278308,207,6,14,30334
1344633972,5802,1046.0000000000000000,208.4900970458984400,523.0972290039062000,7.1552810668945310,38.3600502014160160,52,104,101,82,75,15577,2147433682,2147798537,2147582372,2147833965,2147305024,2147448713,2147768886,2148275602,323,6,14,54210
1344637572,5804,10.6999998092651370,209.8515930175781200,521.7755737304688000,7.1968588829040530,38.2561492919921900,51,104,102,82,75,15578,2147434477,2147798482,2147584393,2147836626,2147303552,2147452992,2147762989,2148278966,604,6,14,8454
1344641172,5802,11.8999996185302730,209.6641998291015600,521.5678710937500000,7.2033920288085940,38.2631988525390600,51,105,103,82,76,15579,2147433792,2147799213,2147581778,2147831405,2147305170,2147449682,2147766564,2148282139,3552,6,14,54203
1344644772,5803,11.1999998092651370,208.0097045898437500,521.4074707031250000,7.2084369659423830,38.3587608337402340,52,103,101,82,75,15576,2147432832,2147797961,2147585517,2147831369,2147309412,2147455332,2147769718,2148278902,115,6,14,12000
1344648372,5804,1003.0000000000000000,207.3200988769531200,521.4107055664062000,7.2083377838134770,38.3993682861328100,51,105,101,84,76,15548,2147434816,2147799259,2147585472,2147831963,2147305636,2147450971,2147762880,2148278619,240,6,14,48024
1344651972,5803,1012.0000000000000000,207.7658996582031200,521.7429809570312000,7.1978859901428220,38.3791885375976560,51,105,102,82,77,15576,2147436406,2147795894,2147580379,2147831844,2147306176,2147449782,2147760036,2148280256,3381,6,14,40767
1344655572,5803,1138.0000000000000000,207.9353942871093800,521.4121704101562000,7.2082920074462890,38.3629493713378900,51,104,102,81,77,15543,2147432448,2147797449,2147582061,2147833252,2147304640,2147449636,2147762944,2148279058,604,6,14,1100
1344659172,5804,10.1000003814697270,208.6291046142578000,521.0418701171875000,7.2199358940124510,38.3151016235351560,52,104,101,82,76,15542,2147435017,2147797760,2147584118,2147829805,2147304320,2147450002,2147761426,2148279360,2779,6,14,10727
1344662772,5804,1033.0000000000000000,208.7292022705078000,521.2504272460938000,7.2133808135986330,38.3131599426269500,51,105,101,82,76,15542,2147435574,2147798683,2147584265,2147830939,2147307885,2147452233,2147761590,2148282468,3060,6,14,12454
1344666372,5803,11.1000003814697270,208.9485015869140600,521.7366943359375000,7.1980838775634770,38.3085098266601560,51,103,101,82,75,15539,2147432886,2147793362,2147583634,2147832530,2147307026,2147448749,2147765120,2148277202,3457,6,14,13466
1344669972,5803,1006.0000000000000000,209.3457031250000000,523.1605224609375000,7.1532921791076660,38.3111991882324200,51,107,103,82,74,15540,2147437156,2147797723,2147584018,2147836324,2147307419,2147448329,2147762560,2148281453,190,6,14,27327
1344673572,5801,11.3000001907348630,209.4470062255859400,523.2055053710938000,7.1518750190734860,38.3051605224609400,51,104,103,81,76,15537,2147432128,2147799186,2147582262,2147831021,2147306934,2147448073,2147762825,2148280246,199,6,14,28712
1344677172,5803,1015.0000000000000000,208.8365020751953000,523.7437744140625000,7.1349368095397950,38.3507690429687500,51,106,103,82,76,15538,2147435904,2147796955,2147587227,2147834102,2147303789,2147450459,2147762258,2148280539,653,6,14,60562
1344680772,5801,1105.0000000000000000,209.2333068847656200,524.1207275390625000,7.1230740547180180,38.3340606689453100,51,102,103,82,76,15465,2147436845,2147795574,2147581165,2147834322,2147309622,2147446930,2147766848,2148280201,3367,6,14,49666
1344684372,5807,1153.0000000000000000,209.7655944824218800,523.6525878906250000,7.1378059387207030,38.2947387695312500,51,106,104,83,77,15449,2147432987,2147796854,2147584493,2147832301,2147304978,2147449069,2147763693,2148277860,11,6,14,61858
1344687972,5806,10.0000000000000000,208.9774932861328000,522.7376098632812000,7.1665968894958500,38.3249702453613300,51,104,102,81,75,15439,2147432576,2147792265,2147583689,2147832484,2147305910,2147450322,2147768292,2148281051,35,6,14,53691
1344691572,5804,1208.0000000000000000,209.4833984375000000,521.6317138671875000,7.2013869285583500,38.2752189636230500,51,104,100,83,77,15432,2147433435,2147798528,2147586011,2147836626,2147306002,2147451849,2147760877,2148282514,773,6,14,34580
1344691855,5804,11.0000000000000000,209.3005981445312500,521.5803222656250000,7.2030029296875000,38.2850189208984400,51,108,102,82,75,15425,2147436617,2147796635,2147585956,2147834020,2147305142,2147449307,2147765403,2148278674,501,6,14,36216
